Location: Cabri�res
(43.7840°N, 5.4986°E)
Time: 10:11:33
(UTC+00:00)

Nadezhda 3 Rocket - Pass Details

Date: 09 April 2020
Orbit: 956 x 1000 km, 82.9° (Epoch: 04 June)

Event Time Altitude Azimuth Distance (km) Brightness Sun altitude
Exits shadow 21:41:20 66° 267° (W) 1,076 4.2 -31.7°
Maximum altitude 21:41:33 66° 280° (W) 1,072 4.2 -31.7°
Drops below altitude 10° 21:47:49 10° 3° (N) 2,742 6.9 -32.4°
Sets 21:50:22 0° 6° (N) 3,688 7.7 -32.6°
